Overview Statistics Trail Chart Weather Telemetry Raw packets
 

This is the latest recevied weather packets stored in our database for station/object W0AKY-13. If no packets are shown the sender has not sent any weather packets the latest 10 day(s).

<< 44 45 46 47 48 49 50 >>
Time Temp. Humidity Pressure Rain* Wind** Luminosity Snow
1788290938 37.22° C 42% 1014.1 hPa 0 mm - 551 W/m² -
1788290634 36.67° C 42% 1014.5 hPa 0 mm - 556 W/m² -
1788290330 36.67° C 43% 1014.3 hPa 0 mm - 562 W/m² -
1788290024 36.67° C 43% 1014.5 hPa 0 mm - 567 W/m² -
1788289721 36.11° C 44% 1014.2 hPa 0 mm - 571 W/m² -
1788289421 36.11° C 45% 1014.4 hPa 0 mm - 575 W/m² -
1788289119 36.11° C 44% 1014.2 hPa 0 mm - 578 W/m² -
1788288818 35.56° C 44% 1014.5 hPa 0 mm - 583 W/m² -
1788288514 36.11° C 44% 1014.3 hPa 0 mm - 585 W/m² -
1788288209 36.11° C 45% 1014.3 hPa 0 mm - 586 W/m² -
1788287905 35.56° C 45% 1014.5 hPa 0 mm - 590 W/m² -
1788287604 35.56° C 45% 1014.2 hPa 0 mm - 591 W/m² -
1788287301 35.56° C 48% 1014.5 hPa 0 mm - 591 W/m² -
1788287000 36.11° C 46% 1014.9 hPa 0 mm - 593 W/m² -
1788286695 35.56° C 49% 1014.8 hPa 0 mm - 592 W/m² -
1788286389 35° C 47% 1014.9 hPa 0 mm - 593 W/m² -
1788286089 35° C 51% 1014.9 hPa 0 mm - 592 W/m² -
1788285788 35° C 54% 1015.1 hPa 0 mm - 591 W/m² -
1788285487 34.44° C 47% 1015.4 hPa 0 mm - 590 W/m² -
1788285182 34.44° C 51% 1015.1 hPa 0 mm - 589 W/m² -
1788284877 35° C 51% 1015.1 hPa 0 mm - 585 W/m² -
1788284576 35° C 46% 1015.3 hPa 0 mm - 582 W/m² -
1788284268 35.56° C 47% 1015.2 hPa 0 mm - 580 W/m² -
1788283963 35° C 50% 1015.3 hPa 0 mm - 576 W/m² -
1788283660 34.44° C 55% 1015.3 hPa 0 mm - 573 W/m² -

* Rain latest hour (hover to see other rain measurements)
** Current wind speed in m/s (hover to see current wind gust speed)